[[{"header":{"parameterUnit":"m.s-1","parameterCategory":1,"la1":30.2991,"la2":30.254,"lo1":-89.0895,"lo2":-89.0444,"dy":0.0017,"dx":0.0017,"nx":28,"ny":28,"refTime":"2024-02-07T03:00:00:Z","depth":0,"parameterNumber":2,"parameterNumberName":"U-component_of_WINDS"},"data":[0,0,0,0,0,0,0,0,0,0,0,0,0,0,0,0,0,0,0,0,0,0,0,0,0,0,0,0,0,0,0,0,0,0,0,0,0,0,0,0,0,0,0,0,0,0,0,0,0,0,0,0,0,0,0,0,0,0,1.8437,1.8438,0,1.8507,1.8508,1.8508,1.8449,1.8446,1.8444,1.8441,1.8519,1.8523,1.8527,0,0,0,0,0,0,0,0,0,0,0,0,0,1.8259,1.8263,1.8437,1.8438,1.8439,1.8507,1.8508,1.8509,1.8449,1.8446,1.8443,1.844,1.8517,1.8522,1.8528,0,0,0,0,0,0,0,0,0,0,0,0,0,1.8334,1.8264,1.8437,1.8417,1.8416,1.8506,1.8508,1.8509,1.845,1.8446,1.8442,1.8439,1.8515,1.8522,1.8528,1.8644,0,0,1.8548,1.8551,0,0,0,0,0,0,0,0,1.8329,1.834,1.8419,1.8419,1.8418,1.8465,1.8473,1.8554,1.8451,1.8437,1.8441,1.8437,1.8504,1.8511,1.8533,1.8647,1.8651,1.8549,1.8553,1.8556,1.8558,0,0,0,0,0,0,0,1.8324,1.8337,1.8465,1.842,1.8419,1.8407,1.8413,1.8488,1.8491,1.8438,1.8434,1.8443,1.8503,1.8527,1.8534,1.8652,1.8549,1.8555,1.8559,1.8561,1.8868,1.8872,0,0,0,0,0,0,1.832,1.8333,1.8463,1.8467,1.8363,1.8413,1.842,1.8454,1.849,1.8492,1.8446,1.844,1.8517,1.8527,1.8537,1.8677,1.8556,1.8562,1.8566,1.8864,1.8869,1.8874,0,0,0,0,0,0,1.8317,1.8332,1.846,1.8399,1.8414,1.842,1.8458,1.8457,1.8481,1.8496,1.8496,1.8469,1.8515,1.8528,1.8618,1.8679,1.8565,1.8571,1.8859,1.8866,1.8871,1.8957,0,0,0,0,0,0,1.8312,1.8331,1.8374,1.84,1.8417,1.8538,1.8462,1.8461,1.8491,1.8484,1.8518,1.852,1.8513,1.8609,1.8625,1.8686,1.8576,1.8854,1.8862,1.8869,1.8949,1.8966,1.898,0,0,0,0,0,1.8306,1.8396,1.8376,1.8392,1.847,1.8541,1.8552,1.854,1.8496,1.854,1.855,1.8519,1.8669,1.8618,1.8636,1.87,1.885,1.886,1.8869,1.8942,1.8962,1.8979,0,0,0,0,0,0,1.8378,1.8399,1.8377,1.8478,1.8508,1.8531,1.8586,1.8561,1.8606,1.8598,1.8583,1.8592,1.8688,1.8702,1.8645,1.8815,1.8753,1.8766,1.8803,1.8822,1.8837,1.8833,1.8581,0,0,0,0,0,1.8405,1.8459,1.8475,1.8563,1.8579,1.858,1.8611,1.8599,1.8631,1.8644,1.866,1.8694,1.8749,1.8786,1.8837,1.895,1.8959,1.9003,1.9019,1.9031,1.9044,1.9109,1.913,1.8905,1.8905,1.8905,0,0,1.8463,1.8481,1.8516,1.8578,1.86,1.8659,1.8591,1.8656,1.8701,1.8654,1.8741,1.8755,1.8791,1.8895,1.8941,1.891,1.9108,1.9043,1.9053,1.9059,1.912,1.9142,1.9161,1.8911,1.891,1.8909,0,0,1.8599,1.8616,1.8692,1.8716,1.875,1.875,1.8769,1.8796,1.8803,1.8889,1.8856,1.891,1.9004,1.9033,1.906,1.9208,1.9182,1.9225,1.9307,1.937,1.9388,1.9403,1.946,1.948,1.9237,1.9237,1.9237,0,1.8667,1.8752,1.8735,1.8803,1.8833,1.8791,1.887,1.8895,1.8945,1.8967,1.8931,1.905,1.9072,1.9183,1.9219,1.9241,1.9264,1.9222,1.9386,1.9402,1.9416,1.947,1.9491,1.9243,1.9242,1.9241,1.9241,0,1.8836,1.8897,1.8954,1.9002,1.9038,1.9111,1.9108,1.9146,1.9132,1.9137,1.9228,1.9252,1.9309,1.9334,1.932,1.9444,1.9424,1.9387,1.9325,1.9443,1.9494,1.9514,1.925,1.9248,1.9247,1.9245,0,0,1.9021,1.9058,1.908,1.9103,1.9138,1.9185,1.9258,1.9312,1.9347,1.9383,1.9446,1.9527,1.9494,1.9524,1.9514,1.9569,1.9689,1.9526,1.9527,1.9558,1.9831,1.9861,1.9885,1.9671,1.9675,1.9678,1.983,0,1.9161,1.9285,1.9272,1.9392,1.9449,1.9411,1.9475,1.9505,1.9512,1.9563,1.9571,1.9631,1.958,1.9599,1.9651,1.9664,1.9745,1.9652,1.9733,1.9736,1.9728,1.9911,1.9942,2.0084,1.9849,1.9852,1.9854,0,1.9341,1.9382,1.9507,1.9535,1.9559,1.9616,1.9666,1.9715,1.9749,1.975,1.9785,1.9766,1.9842,1.9776,1.9883,1.982,1.9852,1.9864,1.9869,1.9879,1.9805,1.9929,2.0129,2.0152,1.9885,1.9882,1.988,0,1.9467,1.9554,1.9641,1.9661,1.9695,1.9737,1.9753,1.9783,1.9818,1.9862,1.9885,1.9938,1.9968,2.001,2.0008,1.9959,2.0118,2.005,2.0124,2.0125,2.0162,2.016,2.0373,2.0177,2.0177,2.0176,2.0176,0,1.9627,1.9706,1.9699,1.9752,1.9841,1.9826,1.9914,1.9926,1.9954,2.0012,1.9982,2.0037,2.0028,2.0084,2.0082,2.0173,2.0186,2.0192,2.0191,2.0197,2.0196,2.022,2.0211,2.0182,2.0181,2.0179,2.0179,0,1.9784,1.9782,1.9875,1.9899,1.9907,1.9972,1.9994,2.0047,2.005,2.0124,2.0141,2.0148,2.0213,2.0213,2.0288,2.0286,2.0399,2.0385,2.0387,2.0386,2.0462,2.0456,2.07,2.0733,2.0512,2.0514,2.0516,0,1.9888,1.9948,1.9979,2.0014,2.0033,2.0091,2.0125,2.0114,2.0152,2.0196,2.0244,2.0305,2.0354,2.046,2.0474,2.0532,2.0522,2.0603,2.053,2.0535,2.0528,2.0525,2.0533,2.0619,2.0621,2.0623,2.0625,0,2.0073,2.007,2.0119,2.017,2.0212,2.0252,2.0288,2.0319,2.0312,2.0357,2.0422,2.046,2.0535,2.0599,2.0654,2.0674,2.0651,2.0647,2.0668,2.0676,2.0676,2.0681,2.043,2.0642,2.064,2.0639,2.0638,2.0637,2.021,2.0262,2.0293,2.035,2.0376,2.0411,2.0462,2.0473,2.0526,2.0586,2.0576,2.065,2.0685,2.0757,2.0782,2.0841,2.0813,2.0843,2.0851,2.0859,2.087,2.0664,2.0851,2.0851,2.085,2.085,2.0849,0,2.0397,2.0414,2.0467,2.0519,2.0565,2.0535,2.0574,2.0616,2.0681,2.0714,2.0763,2.084,2.0901,2.0919,2.098,2.1024,2.1015,2.1041,2.1039,2.1045,2.0889,2.0867,2.1047,2.1047,2.1047,2.1047,2.1047,2.1047,2.05,2.0588,2.0588,2.069,2.0707,2.0778,2.0804,2.0837,2.0864,2.0951,2.1001,2.1012,2.1041,2.1103,2.1159,2.1163,2.1189,2.122,2.122,2.1075,2.1055,2.1037,2.1016,2.1225,2.1225,2.1371,2.1373,2.1374]},{"header":{"parameterUnit":"m.s-1","parameterCategory":1,"la1":30.2991,"la2":30.254,"lo1":-89.0895,"lo2":-89.0444,"dy":0.0017,"dx":0.0017,"nx":28,"ny":28,"refTime":"2024-02-07T03:00:00:Z","depth":0,"parameterNumber":3,"parameterNumberName":"V-component_of_WINDS"},"data":[0,0,0,0,0,0,0,0,0,0,0,0,0,0,0,0,0,0,0,0,0,0,0,0,0,0,0,0,0,0,0,0,0,0,0,0,0,0,0,0,0,0,0,0,0,0,0,0,0,0,0,0,0,0,0,0,0,0,-1.1478,-1.1477,0,-1.1425,-1.1425,-1.1424,-1.1423,-1.1423,-1.1424,-1.1425,-1.1367,-1.1365,-1.1363,0,0,0,0,0,0,0,0,0,0,0,0,0,-1.1573,-1.1572,-1.1478,-1.1477,-1.1477,-1.1426,-1.1425,-1.1424,-1.1423,-1.1423,-1.1424,-1.1425,-1.1368,-1.1365,-1.1362,0,0,0,0,0,0,0,0,0,0,0,0,0,-1.1527,-1.1571,-1.1478,-1.147,-1.1469,-1.1426,-1.1425,-1.1424,-1.1422,-1.1423,-1.1424,-1.1425,-1.1368,-1.1365,-1.1362,-1.1323,0,0,-1.1352,-1.1351,0,0,0,0,0,0,0,0,-1.153,-1.1524,-1.1472,-1.147,-1.1469,-1.1432,-1.1437,-1.139,-1.1422,-1.144,-1.1425,-1.1426,-1.1387,-1.1383,-1.1371,-1.132,-1.1318,-1.1352,-1.135,-1.1349,-1.1348,0,0,0,0,0,0,0,-1.1533,-1.1526,-1.1457,-1.1471,-1.1469,-1.1468,-1.1462,-1.1428,-1.1409,-1.1438,-1.1438,-1.1432,-1.1387,-1.1374,-1.1369,-1.1317,-1.1352,-1.1349,-1.1347,-1.1346,-1.123,-1.1229,0,0,0,0,0,0,-1.1539,-1.1529,-1.1459,-1.1456,-1.1503,-1.1465,-1.1459,-1.1443,-1.1409,-1.1405,-1.1431,-1.1432,-1.1379,-1.1373,-1.1367,-1.1318,-1.1349,-1.1346,-1.1344,-1.1231,-1.123,-1.1229,0,0,0,0,0,0,-1.1541,-1.1532,-1.1461,-1.1492,-1.1483,-1.1462,-1.1444,-1.1441,-1.1428,-1.1404,-1.14,-1.1422,-1.1379,-1.1372,-1.1334,-1.1316,-1.1344,-1.1341,-1.1233,-1.1231,-1.1229,-1.1219,0,0,0,0,0,0,-1.1543,-1.1533,-1.1519,-1.1492,-1.1481,-1.1429,-1.1443,-1.1439,-1.1423,-1.1424,-1.1394,-1.139,-1.1379,-1.1339,-1.1331,-1.1312,-1.1339,-1.1234,-1.1232,-1.123,-1.1221,-1.1217,-1.1214,0,0,0,0,0,-1.1547,-1.1517,-1.1518,-1.151,-1.1463,-1.1428,-1.1422,-1.1412,-1.1422,-1.1406,-1.1391,-1.1391,-1.132,-1.1335,-1.1326,-1.1306,-1.1235,-1.1232,-1.123,-1.1223,-1.1218,-1.1214,0,0,0,0,0,0,-1.1541,-1.1514,-1.1514,-1.1475,-1.1454,-1.1428,-1.1409,-1.1408,-1.1383,-1.1384,-1.1372,-1.1365,-1.1327,-1.1313,-1.133,-1.1265,-1.1278,-1.1274,-1.1276,-1.1271,-1.1268,-1.1271,-1.1336,0,0,0,0,0,-1.1536,-1.1511,-1.1488,-1.1456,-1.1446,-1.1429,-1.1414,-1.1408,-1.1385,-1.1376,-1.1357,-1.1334,-1.1307,-1.1288,-1.1262,-1.122,-1.1212,-1.1201,-1.1198,-1.1195,-1.1191,-1.1166,-1.1161,-1.122,-1.122,-1.122,0,0,-1.1523,-1.1505,-1.149,-1.1454,-1.1437,-1.1411,-1.1421,-1.1393,-1.1373,-1.1371,-1.1334,-1.132,-1.1293,-1.1253,-1.1234,-1.124,-1.1173,-1.1192,-1.119,-1.1187,-1.1163,-1.1158,-1.1153,-1.1218,-1.1219,-1.1219,0,0,-1.1487,-1.1472,-1.1443,-1.1426,-1.1401,-1.139,-1.1384,-1.1358,-1.1349,-1.1312,-1.131,-1.1285,-1.1238,-1.1219,-1.1203,-1.116,-1.1159,-1.1152,-1.1133,-1.111,-1.1105,-1.1101,-1.1084,-1.1078,-1.1148,-1.1148,-1.1148,0,-1.1475,-1.1436,-1.1428,-1.14,-1.1383,-1.1382,-1.1352,-1.1336,-1.1302,-1.1291,-1.1298,-1.1239,-1.1221,-1.1175,-1.1165,-1.1153,-1.1143,-1.1154,-1.1107,-1.1102,-1.1098,-1.1082,-1.1076,-1.1147,-1.1147,-1.1147,-1.1147,0,-1.1421,-1.1394,-1.1374,-1.1343,-1.1325,-1.1295,-1.1282,-1.1264,-1.126,-1.1248,-1.121,-1.1189,-1.1157,-1.1147,-1.1142,-1.11,-1.1104,-1.1109,-1.1122,-1.1092,-1.1076,-1.107,-1.1146,-1.1146,-1.1147,-1.1147,0,0,-1.1378,-1.1345,-1.1337,-1.1323,-1.1295,-1.1273,-1.1244,-1.1215,-1.1199,-1.1176,-1.115,-1.1111,-1.1115,-1.1097,-1.109,-1.107,-1.1036,-1.1077,-1.1076,-1.1069,-1.0986,-1.0981,-1.0974,-1.1035,-1.1034,-1.1033,-1.0988,0,-1.1338,-1.1287,-1.1279,-1.1233,-1.1207,-1.1206,-1.118,-1.116,-1.1148,-1.1124,-1.111,-1.1082,-1.1091,-1.108,-1.106,-1.1044,-1.1019,-1.1048,-1.1009,-1.1008,-1.1014,-1.0967,-1.0961,-1.0919,-1.0982,-1.0981,-1.098,0,-1.1283,-1.1261,-1.1212,-1.1188,-1.1177,-1.1154,-1.1126,-1.1103,-1.108,-1.1073,-1.1053,-1.1049,-1.1017,-1.1033,-1.0987,-1.1007,-1.0991,-1.0981,-1.0979,-1.0973,-1.0991,-1.0958,-1.0906,-1.0899,-1.0971,-1.0972,-1.0972,0,-1.1255,-1.1212,-1.1177,-1.1166,-1.1137,-1.112,-1.1107,-1.1085,-1.1068,-1.1043,-1.1032,-1.1004,-1.0987,-1.0965,-1.0953,-1.0966,-1.0908,-1.0923,-1.09,-1.09,-1.0886,-1.0886,-1.0829,-1.0879,-1.0879,-1.0879,-1.0879,0,-1.1209,-1.1179,-1.1164,-1.1143,-1.1109,-1.11,-1.1066,-1.1054,-1.1034,-1.1009,-1.1007,-1.0983,-1.097,-1.0944,-1.0934,-1.0897,-1.0891,-1.0883,-1.088,-1.0882,-1.0882,-1.0869,-1.0871,-1.0878,-1.0878,-1.0878,-1.0879,0,-1.1171,-1.116,-1.1122,-1.1098,-1.1091,-1.1067,-1.1046,-1.1025,-1.1014,-1.0982,-1.0974,-1.0957,-1.0926,-1.0913,-1.0874,-1.0868,-1.0825,-1.0826,-1.0833,-1.0832,-1.0809,-1.0811,-1.0739,-1.0729,-1.0788,-1.0787,-1.0787,0,-1.1141,-1.1119,-1.1093,-1.1077,-1.1063,-1.1037,-1.102,-1.1011,-1.0992,-1.0964,-1.0945,-1.0915,-1.089,-1.0841,-1.0824,-1.0795,-1.0793,-1.077,-1.0788,-1.079,-1.079,-1.0791,-1.0788,-1.0766,-1.0765,-1.0765,-1.0765,0,-1.109,-1.1086,-1.1061,-1.1035,-1.1015,-1.0993,-1.0972,-1.0959,-1.0946,-1.0925,-1.0894,-1.0875,-1.0837,-1.0806,-1.0776,-1.0761,-1.076,-1.076,-1.0752,-1.0752,-1.0757,-1.0752,-1.0822,-1.076,-1.0761,-1.0761,-1.0761,-1.0762,-1.1054,-1.1033,-1.1012,-1.0984,-1.0968,-1.0948,-1.0927,-1.0914,-1.0888,-1.0857,-1.0853,-1.082,-1.0796,-1.0756,-1.074,-1.0713,-1.0719,-1.0709,-1.0705,-1.0703,-1.07,-1.0763,-1.0708,-1.0708,-1.0708,-1.0708,-1.0708,0,-1.1,-1.0987,-1.0962,-1.0933,-1.0911,-1.0915,-1.0891,-1.0872,-1.0844,-1.0823,-1.0799,-1.0763,-1.0733,-1.0714,-1.0684,-1.0666,-1.0664,-1.0658,-1.0658,-1.0654,-1.0698,-1.0707,-1.066,-1.066,-1.066,-1.066,-1.066,-1.066,-1.097,-1.0935,-1.0928,-1.0884,-1.0871,-1.0839,-1.0825,-1.0806,-1.079,-1.075,-1.0726,-1.0715,-1.0694,-1.0662,-1.0635,-1.063,-1.0618,-1.0611,-1.0606,-1.0647,-1.0652,-1.0656,-1.0664,-1.0609,-1.0609,-1.0564,-1.0564,-1.0564]}]]